Terug naar catalogus

STARLINK-11362

ActiefCommunicatieVLEO
NORAD 61535·PAYLOAD·🇺🇸 United States

Gelanceerd Oct 15, 2024 vanaf Vandenberg Space Force Base

Loading…

Volgende Passages (komende 24 uur)

TLE

VersSource: CelesTrak SupGP

Epoch: Sep 15, 2026, 03:18 UTC

1 61535C 24184D   26258.13798611 -.00056612  00000+0 -46627-3 0  2585
2 61535  53.1576  22.2112 0001008  83.7775 298.6437 15.69741138    10

Volg STARLINK-11362 in realtime met AllMySat

Download on the App Store